| time (UTC) | temp F | wind direction | speed knots | gust knots | rain 1hr in | rain 24hr in | rain mn in | humidity % | barometer mb |
| 20260506073104 | 55 | 290 | 0.0 | 0.0 | 0.00 | 0.00 | 0.00 | 60 | 1013.5 |
| 20260506072603 | 55 | 290 | 0.0 | 0.0 | 0.00 | 0.00 | 0.00 | 59 | 1013.4 |
| 20260506071603 | 55 | 290 | 0.0 | 0.0 | 0.00 | 0.00 | 0.00 | 58 | 1013.3 |
| 20260506071104 | 55 | 290 | 0.0 | 0.0 | 0.00 | 0.00 | 0.00 | 58 | 1013.3 |
| 20260506070604 | 56 | 290 | 0.0 | 0.0 | 0.00 | 0.00 | 0.00 | 58 | 1013.1 |
| 20260506070104 | 56 | 290 | 0.0 | 0.0 | 0.00 | 0.00 | 0.00 | 57 | 1013.0 |
| 20260506062104 | 57 | 290 | 0.0 | 0.0 | 0.00 | 0.00 | 0.00 | 56 | 1012.5 |
| 20260506061604 | 57 | 290 | 0.0 | 0.0 | 0.00 | 0.00 | 0.00 | 55 | 1012.5 |
| 20260506061104 | 57 | 290 | 0.0 | 0.0 | 0.00 | 0.00 | 0.00 | 55 | 1012.4 |
| 20260506060104 | 58 | 290 | 0.0 | 0.0 | 0.00 | 0.00 | 0.00 | 55 | 1012.2 |
| 20260506051104 | 62 | 290 | 0.0 | 0.0 | 0.00 | 0.00 | 0.00 | 49 | 1011.6 |
| 20260506050603 | 62 | 290 | 0.0 | 0.0 | 0.00 | 0.00 | 0.00 | 49 | 1011.6 |
| 20260506050104 | 63 | 290 | 0.0 | 0.0 | 0.00 | 0.00 | 0.00 | 48 | 1011.5 |
| 20260506045104 | 63 | 290 | 0.0 | 0.0 | 0.00 | 0.00 | 0.00 | 46 | 1011.5 |
| 20260506044604 | 64 | 290 | 0.0 | 0.0 | 0.00 | 0.00 | 0.00 | 46 | 1011.5 |
| 20260506043104 | 64 | 290 | 0.0 | 0.0 | 0.00 | 0.00 | 0.00 | 44 | 1011.4 |
| 20260506042604 | 64 | 290 | 0.0 | 0.0 | 0.00 | 0.00 | 0.00 | 44 | 1011.4 |
| 20260506042104 | 65 | 290 | 0.0 | 0.0 | 0.00 | 0.00 | 0.00 | 44 | 1011.3 |
| 20260506041604 | 65 | 290 | 0.0 | 0.0 | 0.00 | 0.00 | 0.00 | 44 | 1011.2 |
| 20260506041104 | 65 | 290 | 0.0 | 0.0 | 0.00 | 0.00 | 0.00 | 44 | 1011.1 |
| 20260506040604 | 66 | 290 | 0.0 | 0.0 | 0.00 | 0.00 | 0.00 | 45 | 1011.2 |
| 20260506040104 | 66 | 290 | 0.0 | 0.0 | 0.00 | 0.00 | 0.00 | 45 | 1011.2 |
| 20260506035104 | 67 | 290 | 0.0 | 0.0 | 0.00 | 0.00 | 0.00 | 45 | 1011.0 |
| 20260506034104 | 67 | 290 | 0.0 | 0.0 | 0.00 | 0.00 | 0.00 | 44 | 1010.9 |
| 20260506033606 | 68 | 290 | 0.0 | 0.0 | 0.00 | 0.00 | 0.00 | 44 | 1010.9 |
| 20260506033104 | 68 | 290 | 0.0 | 0.0 | 0.00 | 0.00 | 0.00 | 44 | 1010.9 |
| 20260506032604 | 68 | 290 | 0.0 | 0.0 | 0.00 | 0.00 | 0.00 | 44 | 1010.8 |
| 20260506032104 | 68 | 287 | 0.0 | 0.0 | 0.00 | 0.00 | 0.00 | 44 | 1010.8 |
| 20260506031604 | 69 | 285 | 0.0 | 0.9 | 0.00 | 0.00 | 0.00 | 43 | 1010.7 |
| 20260506030604 | 69 | 288 | 0.0 | 1.7 | 0.00 | 0.00 | 0.00 | 43 | 1010.6 |
| 20260506030104 | 69 | 238 | 0.9 | 2.6 | 0.00 | 0.00 | 0.00 | 42 | 1010.4 |
| 20260506025604 | 69 | 340 | 0.0 | 8.7 | 0.00 | 0.00 | 0.00 | 42 | 1010.4 |
| 20260506025104 | 70 | 328 | 0.0 | 1.7 | 0.00 | 0.00 | 0.00 | 41 | 1010.4 |
| 20260506024104 | 70 | 305 | 0.0 | 0.0 | 0.00 | 0.00 | 0.00 | 40 | 1010.1 |
| 20260506023604 | 70 | 302 | 0.0 | 0.9 | 0.00 | 0.00 | 0.00 | 39 | 1010.1 |
| 20260506023103 | 70 | 256 | 0.0 | 2.6 | 0.00 | 0.00 | 0.00 | 39 | 1010.1 |
| 20260506022604 | 71 | 285 | 0.0 | 2.6 | 0.00 | 0.00 | 0.00 | 39 | 1010.2 |
| 20260506022104 | 71 | 290 | 0.0 | 1.7 | 0.00 | 0.00 | 0.00 | 39 | 1010.1 |
| 20260506021603 | 71 | 244 | 0.0 | 0.0 | 0.00 | 0.00 | 0.00 | 38 | 1010.2 |
| 20260506021104 | 71 | 245 | 0.0 | 2.6 | 0.00 | 0.00 | 0.00 | 38 | 1010.2 |
| 20260506015604 | 72 | 290 | 0.0 | 0.9 | 0.00 | 0.00 | 0.00 | 39 | 1010.2 |
| 20260506015104 | 72 | 235 | 0.0 | 0.9 | 0.00 | 0.00 | 0.00 | 39 | 1010.2 |
| 20260506014604 | 72 | 235 | 0.0 | 2.6 | 0.00 | 0.00 | 0.00 | 39 | 1010.1 |
| 20260506014104 | 72 | 298 | 0.0 | 7.8 | 0.00 | 0.00 | 0.00 | 39 | 1010.1 |
| 20260506013604 | 72 | 285 | 1.7 | 7.0 | 0.00 | 0.00 | 0.00 | 38 | 1010.1 |
| 20260506013104 | 73 | 254 | 0.9 | 4.3 | 0.00 | 0.00 | 0.00 | 38 | 1010.1 |
| 20260506012604 | 73 | 246 | 0.9 | 2.6 | 0.00 | 0.00 | 0.00 | 38 | 1010.0 |
| 20260506012104 | 73 | 299 | 0.9 | 7.8 | 0.00 | 0.00 | 0.00 | 37 | 1010.0 |
| 20260506011604 | 74 | 334 | 1.7 | 4.3 | 0.00 | 0.00 | 0.00 | 36 | 1009.9 |
| 20260506011104 | 74 | 296 | 0.9 | 4.3 | 0.00 | 0.00 | 0.00 | 35 | 1009.8 |
| 20260506010604 | 74 | 328 | 0.9 | 4.3 | 0.00 | 0.00 | 0.00 | 35 | 1009.7 |
| 20260506010104 | 75 | 264 | 2.6 | 10.4 | 0.00 | 0.00 | 0.00 | 34 | 1009.7 |
| 20260506005104 | 76 | 331 | 0.0 | 2.6 | 0.00 | 0.00 | 0.00 | 32 | 1009.6 |
| 20260506004104 | 76 | 325 | 1.7 | 7.0 | 0.00 | 0.00 | 0.00 | 31 | 1009.5 |
| 20260506003604 | 76 | 321 | 1.7 | 6.1 | 0.00 | 0.00 | 0.00 | 31 | 1009.5 |
| 20260506003104 | 76 | 325 | 1.7 | 5.2 | 0.00 | 0.00 | 0.00 | 31 | 1009.4 |
| 20260506002104 | 75 | 253 | 0.0 | 2.6 | 0.00 | 0.00 | 0.00 | 31 | 1009.4 |
| 20260506001604 | 75 | 330 | 1.7 | 10.4 | 0.00 | 0.00 | 0.00 | 31 | 1009.4 |
| 20260506001104 | 75 | 328 | 0.9 | 2.6 | 0.00 | 0.00 | 0.00 | 31 | 1009.4 |
| 20260506000604 | 76 | 330 | 2.6 | 8.7 | 0.00 | 0.00 | 0.00 | 29 | 1009.3 |
| 20260506000104 | 77 | 322 | 4.3 | 8.7 | 0.00 | 0.00 | 0.00 | 28 | 1009.3 |
| 20260505235604 | 77 | 251 | 0.0 | 2.6 | 0.00 | 0.00 | 0.00 | 29 | 1009.3 |
| 20260505234604 | 77 | 324 | 4.3 | 15.6 | 0.00 | 0.00 | 0.00 | 28 | 1009.2 |
| 20260505233605 | 77 | 328 | 0.9 | 7.0 | 0.00 | 0.00 | 0.00 | 28 | 1009.2 |
| 20260505233104 | 77 | 325 | 1.7 | 8.7 | 0.00 | 0.00 | 0.00 | 28 | 1009.2 |
| 20260505232604 | 78 | 321 | 1.7 | 4.3 | 0.00 | 0.00 | 0.00 | 28 | 1009.4 |
| 20260505232104 | 78 | 315 | 0.0 | 4.3 | 0.00 | 0.00 | 0.00 | 28 | 1009.3 |
| 20260505231604 | 77 | 59 | 0.0 | 7.0 | 0.00 | 0.00 | 0.00 | 28 | 1009.4 |
| 20260505231104 | 77 | 328 | 0.9 | 13.0 | 0.00 | 0.00 | 0.00 | 28 | 1009.4 |
| 20260505230604 | 78 | 317 | 2.6 | 7.8 | 0.00 | 0.00 | 0.00 | 28 | 1009.3 |
| 20260505230104 | 78 | 315 | 0.0 | 2.6 | 0.00 | 0.00 | 0.00 | 28 | 1009.3 |
| 20260505225604 | 78 | 325 | 0.0 | 4.3 | 0.00 | 0.00 | 0.00 | 27 | 1009.5 |
| 20260505225104 | 78 | 350 | 0.9 | 5.2 | 0.00 | 0.00 | 0.00 | 28 | 1009.4 |
| 20260505224604 | 78 | 323 | 0.9 | 4.3 | 0.00 | 0.00 | 0.00 | 28 | 1009.4 |
| 20260505224104 | 78 | 300 | 0.9 | 2.6 | 0.00 | 0.00 | 0.00 | 27 | 1009.4 |
| 20260505223604 | 78 | 319 | 1.7 | 7.8 | 0.00 | 0.00 | 0.00 | 26 | 1009.5 |
| 20260505223104 | 79 | 333 | 0.0 | 1.7 | 0.00 | 0.00 | 0.00 | 26 | 1009.4 |
| 20260505222104 | 78 | 333 | 2.6 | 7.8 | 0.00 | 0.00 | 0.00 | 27 | 1009.5 |
| 20260505221604 | 79 | 331 | 0.0 | 1.7 | 0.00 | 0.00 | 0.00 | 26 | 1009.5 |
| 20260505221104 | 78 | 311 | 0.0 | 2.6 | 0.00 | 0.00 | 0.00 | 26 | 1009.5 |
| 20260505220604 | 78 | 327 | 0.9 | 4.3 | 0.00 | 0.00 | 0.00 | 27 | 1009.6 |
| 20260505220104 | 78 | 320 | 0.9 | 5.2 | 0.00 | 0.00 | 0.00 | 26 | 1009.6 |
| 20260505215604 | 78 | 314 | 0.9 | 2.6 | 0.00 | 0.00 | 0.00 | 26 | 1009.5 |
| 20260505215104 | 78 | 324 | 4.3 | 11.3 | 0.00 | 0.00 | 0.00 | 27 | 1009.6 |
| 20260505214604 | 77 | 315 | 0.9 | 4.3 | 0.00 | 0.00 | 0.00 | 28 | 1009.7 |
| 20260505214104 | 77 | 318 | 3.5 | 8.7 | 0.00 | 0.00 | 0.00 | 28 | 1009.7 |
| 20260505212604 | 77 | 330 | 2.6 | 8.7 | 0.00 | 0.00 | 0.00 | 28 | 1009.8 |
| 20260505212104 | 77 | 325 | 0.0 | 2.6 | 0.00 | 0.00 | 0.00 | 30 | 1009.8 |
| 20260505210604 | 78 | 325 | 3.5 | 8.7 | 0.00 | 0.00 | 0.00 | 29 | 1009.8 |
| 20260505210105 | 77 | 288 | 0.0 | 2.6 | 0.00 | 0.00 | 0.00 | 29 | 1009.8 |
| 20260505205604 | 77 | 330 | 3.5 | 7.0 | 0.00 | 0.00 | 0.00 | 28 | 1009.7 |
| 20260505205104 | 77 | 317 | 1.7 | 7.8 | 0.00 | 0.00 | 0.00 | 30 | 1009.7 |
| 20260505204604 | 77 | 325 | 0.9 | 7.8 | 0.00 | 0.00 | 0.00 | 29 | 1009.7 |
| 20260505204104 | 78 | 310 | 1.7 | 8.7 | 0.00 | 0.00 | 0.00 | 31 | 1009.6 |
| 20260505203604 | 78 | 320 | 0.9 | 4.3 | 0.00 | 0.00 | 0.00 | 30 | 1009.6 |
| 20260505202105 | 77 | 47 | 0.9 | 4.3 | 0.00 | 0.00 | 0.00 | 32 | 1009.8 |
| 20260505201604 | 77 | 312 | 2.6 | 7.8 | 0.00 | 0.00 | 0.00 | 30 | 1009.9 |
| 20260505200604 | 76 | 316 | 0.9 | 6.1 | 0.00 | 0.00 | 0.00 | 32 | 1010.1 |
| 20260505200104 | 76 | 330 | 1.7 | 7.8 | 0.00 | 0.00 | 0.00 | 33 | 1010.2 |
| 20260505195604 | 75 | 49 | 0.9 | 2.6 | 0.00 | 0.00 | 0.00 | 35 | 1010.2 |
| 20260505194604 | 75 | 329 | 1.7 | 7.0 | 0.00 | 0.00 | 0.00 | 34 | 1010.2 |
| 20260505194104 | 75 | 327 | 1.7 | 4.3 | 0.00 | 0.00 | 0.00 | 34 | 1010.2 |
| 20260505193604 | 75 | 335 | 1.7 | 5.2 | 0.00 | 0.00 | 0.00 | 33 | 1010.4 |
| 20260505193104 | 74 | 321 | 0.9 | 5.2 | 0.00 | 0.00 | 0.00 | 35 | 1010.3 |
| 20260505192604 | 74 | 320 | 1.7 | 7.8 | 0.00 | 0.00 | 0.00 | 35 | 1010.3 |
| 20260505192104 | 74 | 336 | 1.7 | 7.8 | 0.00 | 0.00 | 0.00 | 34 | 1010.3 |
| 20260505191604 | 75 | 323 | 0.0 | 2.6 | 0.00 | 0.00 | 0.00 | 33 | 1010.3 |
| 20260505191104 | 74 | 323 | 0.9 | 5.2 | 0.00 | 0.00 | 0.00 | 33 | 1010.3 |
| 20260505190605 | 74 | 313 | 0.0 | 5.2 | 0.00 | 0.00 | 0.00 | 34 | 1010.3 |
| 20260505190104 | 74 | 355 | 0.0 | 2.6 | 0.00 | 0.00 | 0.00 | 36 | 1010.3 |
| 20260505185604 | 73 | 341 | 0.9 | 2.6 | 0.00 | 0.00 | 0.00 | 35 | 1010.4 |
| 20260505185104 | 73 | 329 | 0.9 | 2.6 | 0.00 | 0.00 | 0.00 | 35 | 1010.3 |
| 20260505184604 | 73 | 319 | 2.6 | 5.2 | 0.00 | 0.00 | 0.00 | 36 | 1010.5 |
| 20260505184104 | 72 | 336 | 0.9 | 2.6 | 0.00 | 0.00 | 0.00 | 37 | 1010.4 |
| 20260505183604 | 72 | 315 | 0.0 | 0.0 | 0.00 | 0.00 | 0.00 | 35 | 1010.5 |
| 20260505182604 | 72 | 334 | 0.0 | 1.7 | 0.00 | 0.00 | 0.00 | 37 | 1010.5 |
| 20260505182104 | 71 | 340 | 0.0 | 1.7 | 0.00 | 0.00 | 0.00 | 35 | 1010.4 |
| 20260505181604 | 71 | 345 | 0.9 | 2.6 | 0.00 | 0.00 | 0.00 | 37 | 1010.4 |
| 20260505180604 | 70 | 337 | 0.0 | 4.3 | 0.00 | 0.00 | 0.00 | 38 | 1010.5 |
| 20260505180105 | 71 | 335 | 0.9 | 2.6 | 0.00 | 0.00 | 0.00 | 37 | 1010.5 |
| 20260505175604 | 70 | 69 | 0.0 | 1.7 | 0.00 | 0.00 | 0.00 | 38 | 1010.5 |
| 20260505175104 | 69 | 23 | 0.0 | 0.9 | 0.00 | 0.00 | 0.00 | 40 | 1010.6 |
| 20260505174604 | 68 | 340 | 0.0 | 2.6 | 0.00 | 0.00 | 0.00 | 39 | 1010.6 |
| 20260505174104 | 68 | 46 | 0.0 | 1.7 | 0.00 | 0.00 | 0.00 | 40 | 1010.6 |
| 20260505173604 | 67 | 56 | 0.0 | 2.6 | 0.00 | 0.00 | 0.00 | 40 | 1010.6 |
| 20260505173104 | 67 | 335 | 0.0 | 2.6 | 0.00 | 0.00 | 0.00 | 41 | 1010.5 |
| 20260505172604 | 67 | 338 | 0.9 | 2.6 | 0.00 | 0.00 | 0.00 | 41 | 1010.5 |
| 20260505172104 | 67 | 347 | 0.0 | 2.6 | 0.00 | 0.00 | 0.00 | 40 | 1010.4 |
| 20260505171104 | 67 | 265 | 0.0 | 1.7 | 0.00 | 0.00 | 0.00 | 41 | 1010.4 |
| 20260505170606 | 67 | 250 | 0.0 | 1.7 | 0.00 | 0.00 | 0.00 | 41 | 1010.5 |
| 20260505170104 | 67 | 186 | 0.0 | 0.0 | 0.00 | 0.00 | 0.00 | 42 | 1010.5 |
| 20260505165604 | 66 | 229 | 0.0 | 0.0 | 0.00 | 0.00 | 0.00 | 42 | 1010.6 |
| 20260505165104 | 66 | 170 | 0.0 | 0.0 | 0.00 | 0.00 | 0.00 | 43 | 1010.6 |
| 20260505164104 | 65 | 174 | 0.0 | 0.0 | 0.00 | 0.00 | 0.00 | 45 | 1010.6 |
| 20260505163604 | 64 | 173 | 0.0 | 0.0 | 0.00 | 0.00 | 0.00 | 45 | 1010.7 |
| 20260505163104 | 63 | 236 | 0.0 | 0.0 | 0.00 | 0.00 | 0.00 | 48 | 1010.6 |
| 20260505162604 | 63 | 236 | 0.0 | 0.0 | 0.00 | 0.00 | 0.00 | 50 | 1010.6 |
| 20260505162104 | 62 | 235 | 0.0 | 0.0 | 0.00 | 0.00 | 0.00 | 52 | 1010.6 |
| 20260505161604 | 61 | 236 | 0.0 | 0.0 | 0.00 | 0.00 | 0.00 | 53 | 1010.5 |
| 20260505161104 | 60 | 237 | 0.0 | 0.0 | 0.00 | 0.00 | 0.00 | 55 | 1010.5 |
| 20260505160104 | 57 | 238 | 0.0 | 0.0 | 0.00 | 0.00 | 0.00 | 63 | 1010.6 |
| 20260505153104 | 55 | 238 | 0.0 | 0.0 | 0.00 | 0.00 | 0.00 | 66 | 1010.7 |
| 20260505152604 | 55 | 238 | 0.0 | 0.0 | 0.00 | 0.00 | 0.00 | 66 | 1010.6 |
| 20260505152103 | 54 | 238 | 0.0 | 0.0 | 0.00 | 0.00 | 0.00 | 66 | 1010.5 |
| 20260505151604 | 54 | 238 | 0.0 | 0.0 | 0.00 | 0.00 | 0.00 | 67 | 1010.4 |
| 20260505151103 | 54 | 238 | 0.0 | 0.0 | 0.00 | 0.00 | 0.00 | 67 | 1010.5 |
| 20260505150104 | 53 | 238 | 0.0 | 0.0 | 0.00 | 0.00 | 0.00 | 68 | 1010.4 |
| 20260505140603 | 47 | 157 | 0.0 | 0.9 | 0.00 | 0.00 | 0.00 | 76 | 1009.6 |
| 20260505130103 | 46 | 258 | 0.0 | 0.0 | 0.00 | 0.00 | 0.00 | 77 | 1009.2 |
| 20260505124103 | 46 | 281 | 0.0 | 0.0 | 0.00 | 0.00 | 0.00 | 77 | 1009.1 |
| 20260505123603 | 46 | 284 | 0.0 | 0.0 | 0.00 | 0.00 | 0.00 | 77 | 1009.1 |
| 20260505123104 | 46 | 284 | 0.0 | 0.0 | 0.00 | 0.00 | 0.00 | 76 | 1009.0 |
| 20260505121604 | 46 | 287 | 0.0 | 0.0 | 0.00 | 0.00 | 0.00 | 77 | 1008.8 |
| 20260505121103 | 46 | 287 | 0.0 | 0.0 | 0.00 | 0.00 | 0.00 | 77 | 1008.8 |
| 20260505120604 | 46 | 287 | 0.0 | 0.0 | 0.00 | 0.00 | 0.00 | 77 | 1008.8 |
| 20260505115103 | 46 | 287 | 0.0 | 0.0 | 0.00 | 0.00 | 0.00 | 76 | 1008.7 |
| 20260505114603 | 46 | 287 | 0.0 | 0.0 | 0.00 | 0.00 | 0.00 | 76 | 1008.7 |
| 20260505114103 | 47 | 287 | 0.0 | 0.0 | 0.00 | 0.00 | 0.00 | 76 | 1008.7 |
| 20260505113604 | 47 | 287 | 0.0 | 0.0 | 0.00 | 0.00 | 0.00 | 76 | 1008.8 |
| 20260505113103 | 47 | 287 | 0.0 | 0.0 | 0.00 | 0.00 | 0.00 | 76 | 1008.7 |
| 20260505112603 | 47 | 287 | 0.0 | 0.0 | 0.00 | 0.00 | 0.00 | 76 | 1008.7 |
| 20260505112103 | 47 | 287 | 0.0 | 0.0 | 0.00 | 0.00 | 0.00 | 75 | 1008.8 |
| 20260505111603 | 47 | 287 | 0.0 | 0.0 | 0.00 | 0.00 | 0.00 | 75 | 1008.7 |
| 20260505111103 | 47 | 287 | 0.0 | 0.0 | 0.00 | 0.00 | 0.00 | 75 | 1008.7 |
| 20260505110603 | 47 | 287 | 0.0 | 0.0 | 0.00 | 0.00 | 0.00 | 75 | 1008.7 |
| 20260505102103 | 48 | 292 | 0.0 | 0.0 | 0.00 | 0.00 | 0.00 | 74 | 1008.5 |
| 20260505101603 | 48 | 292 | 0.0 | 0.0 | 0.00 | 0.00 | 0.00 | 74 | 1008.4 |
| 20260505100603 | 49 | 292 | 0.0 | 0.0 | 0.00 | 0.00 | 0.00 | 74 | 1008.5 |
| 20260505100104 | 49 | 292 | 0.0 | 0.0 | 0.00 | 0.00 | 0.00 | 74 | 1008.6 |
| 20260505095603 | 49 | 292 | 0.0 | 0.0 | 0.00 | 0.00 | 0.00 | 74 | 1008.6 |
| 20260505095103 | 49 | 292 | 0.0 | 0.0 | 0.00 | 0.00 | 0.00 | 73 | 1008.5 |
| 20260505094604 | 49 | 324 | 0.0 | 0.0 | 0.00 | 0.00 | 0.00 | 72 | 1008.5 |
| 20260505094103 | 49 | 325 | 0.0 | 0.0 | 0.00 | 0.00 | 0.00 | 71 | 1008.5 |
| 20260505093603 | 49 | 325 | 0.0 | 0.0 | 0.00 | 0.00 | 0.00 | 71 | 1008.5 |
| 20260505093103 | 49 | 325 | 0.0 | 0.0 | 0.00 | 0.00 | 0.00 | 71 | 1008.6 |
| 20260505092603 | 49 | 325 | 0.0 | 0.0 | 0.00 | 0.00 | 0.00 | 70 | 1008.5 |
| 20260505092103 | 49 | 325 | 0.0 | 0.0 | 0.00 | 0.00 | 0.00 | 70 | 1008.6 |
| 20260505091103 | 49 | 325 | 0.0 | 0.0 | 0.00 | 0.00 | 0.00 | 69 | 1008.5 |
| 20260505090603 | 50 | 325 | 0.0 | 0.0 | 0.00 | 0.00 | 0.00 | 69 | 1008.4 |
| 20260505085603 | 50 | 325 | 0.0 | 0.0 | 0.00 | 0.00 | 0.00 | 69 | 1008.4 |
| 20260505085104 | 50 | 325 | 0.0 | 0.0 | 0.00 | 0.00 | 0.00 | 68 | 1008.4 |
| 20260505084603 | 50 | 325 | 0.0 | 0.0 | 0.00 | 0.00 | 0.00 | 68 | 1008.5 |
| 20260505084103 | 50 | 325 | 0.0 | 0.0 | 0.00 | 0.00 | 0.00 | 68 | 1008.5 |
| 20260505083603 | 50 | 325 | 0.0 | 0.0 | 0.00 | 0.00 | 0.00 | 67 | 1008.6 |
| 20260505083103 | 50 | 325 | 0.0 | 0.0 | 0.00 | 0.00 | 0.00 | 67 | 1008.6 |
| 20260505082604 | 50 | 325 | 0.0 | 0.0 | 0.00 | 0.00 | 0.00 | 66 | 1008.6 |
| 20260505082103 | 51 | 325 | 0.0 | 0.0 | 0.00 | 0.00 | 0.00 | 65 | 1008.6 |
| 20260505081603 | 51 | 325 | 0.0 | 0.0 | 0.00 | 0.00 | 0.00 | 64 | 1008.5 |
| 20260505081103 | 51 | 325 | 0.0 | 0.0 | 0.00 | 0.00 | 0.00 | 62 | 1008.5 |
| 20260505080603 | 51 | 325 | 0.0 | 0.0 | 0.00 | 0.00 | 0.00 | 61 | 1008.5 |
| 20260505080104 | 52 | 325 | 0.0 | 0.0 | 0.00 | 0.00 | 0.00 | 58 | 1008.4 |
| 20260505075603 | 52 | 325 | 0.0 | 0.0 | 0.00 | 0.00 | 0.00 | 56 | 1008.5 |
| 20260505075104 | 52 | 325 | 0.0 | 0.0 | 0.00 | 0.00 | 0.00 | 56 | 1008.6 |
| 20260505074603 | 52 | 325 | 0.0 | 0.0 | 0.00 | 0.00 | 0.00 | 55 | 1008.6 |
| 20260505073603 | 53 | 325 | 0.0 | 0.0 | 0.00 | 0.00 | 0.00 | 54 | 1008.6 |